Regional Weather Roundup
Issued by NWS

Home | Current Version | Previous Version | Text Only | Print | Product List | Glossary Off
Versions: 1 2 3 4 5 6 7 8 9 10 11 12 13 14 15 16 17 18 19 20 21 22 23 24 25 26 27 28 29 30 31 32 33 34 35 36 37 38 39 40 41 42 43 44 45 46 47 48 49 50

000
ASUS43 KDTX 210810
RWRMI
MICHIGAN HOURLY REGIONAL WEATHER ROUNDUP
NATIONAL WEATHER SERVICE DETROIT/PONTIAC MI
ISSUED BY NATIONAL WEATHER SERVICE GRAND RAPIDS MI
300 AM EST SAT JAN 21 2017

NOTE: "FAIR" INDICATES FEW OR NO CLOUDS BELOW 12,000 FEET WITH NO
SIGNIFICANT WEATHER AND/OR OBSTRUCTION TO VISIBILITY.

MIZ047>049-052>055-059>063-066>070-074>076-081>083-210900-
SOUTHEAST LOWER MICHIGAN

CITY           SKY/WX    TMP DP  RH WIND       PRES   REMARKS
ADRIAN         FOG       41  41 100 CALM      29.73S VSB 1/4
ALMA           FOG       34  34  99 NE6       29.72S VSB 1/2 WCI  29
ANN ARBOR      FOG       39  39 100 CALM      29.73R VSB 1/4
BAD AXE        CLOUDY    33  33 100 S3        29.76R FOG
DETROIT CITY   FOG       40  40 100 SE5       29.76R VSB 1/2
DETROIT        FOG       41  41 100 CALM      29.75S VSB 1/4
FLINT          FOG       38  37  97 E6        29.74R VSB 1   WCI  33
GROSSE ILE     FOG       40  39  99 S5        29.74S VSB 1/2
HILLSDALE      CLOUDY    43  43 100 SE6       29.69F FOG
HOWELL         CLOUDY    41  40  97 SE5       29.71S FOG

CITY           SKY/WX    TMP DP  RH WIND       PRES   REMARKS
JACKSON        CLOUDY    43  42  97 SE6       29.70S FOG
LANSING        CLOUDY    40  37  89 E5        29.71R FOG
MASON          CLOUDY    41  41 100 CALM      29.70F FOG
MONROE         FOG       44  44 100 SE3       29.73S VSB 1/2
MT. CLEMENS    FOG       38  38 100 SE5       29.74S VSB 1/2 WCI  35
PONTIAC        FOG       39  37  92 CALM      29.73R VSB 1/4
PORT HOPE        N/A     34  34 100 CALM      29.75R
PORT HURON     FOG       37  37 100 CALM      29.77R VSB 1/4
TRI CITIES     FOG       34  34 100 E5        29.75R VSB 1/4 WCI  30
YPSILANTI      FOG       41  41 100 NE3       29.74S VSB 1/4
$$
MIZ043>046-050>051-056>058-064>065-071>073-077>080-210900-
SOUTHWEST LOWER MICHIGAN

CITY           SKY/WX    TMP DP  RH WIND       PRES   REMARKS
BATTLE CREEK   CLOUDY    45  45 100 SE8       29.68S
BENTON HARBOR  CLOUDY    49  46  90 S9        29.63F
BIG RAPIDS     FOG       33  32  97 CALM      29.68F VSB 1/2
COLDWATER      CLOUDY    46  46 100 SE9       29.68F FOG
HOLLAND        LGT RAIN  41  40  96 NE3       29.65S
GRAND RAPIDS   CLOUDY    38  36  92 E6        29.67S FOG     WCI  33
KALAMAZOO      CLOUDY    46  44  93 S5        29.67R FOG
MARSHALL       CLOUDY    46  45  97 SE6       29.68S FOG
MOUNT PLEASANT FOG       33  33  99 E3        29.72S VSB 1
MUSKEGON       FOG       38  37  97 E7        29.66S VSB 1   WCI  33
STURGIS        CLOUDY    47  46  97 SE9       29.67S FOG
$$
MIZ016>042-210900-
NORTHERN LOWER MICHIGAN

CITY           SKY/WX    TMP DP  RH WIND       PRES   REMARKS
ALPENA         CLOUDY    32  31  96 CALM      29.74R FOG
BEAVER ISLAND  CLOUDY    35  35 100 CALM      29.70R FOG
BELLAIRE       CLOUDY    33  32  98 CALM      29.71S FOG
CADILLAC       FOG       32  32  99 E5        29.67F VSB 3/4 WCI  27
CHARLEVOIX     CLOUDY    34  34 100 CALM      29.73S FOG
GAYLORD        CLOUDY    34  31  88 S5        29.69R WCI  30
HOUGHTON LAKE  CLOUDY    32  32 100 CALM      29.70F FOG
MANISTEE       CLOUDY    33  33 100 E7        29.67F FOG     WCI  27
OSCODA         FOG       34  33  97 CALM      29.74R VSB 1
PELLSTON       FOG       33  32  96 CALM      29.72R VSB 3/4
TRAVERSE CITY  CLOUDY    35  33  92 CALM      29.70R
LUDINGTON      CLOUDY    34  34 100 E6        29.67S FOG     WCI  29
$$
MIZ007>008-015-210900-
EASTERN UPPER MICHIGAN

CITY           SKY/WX    TMP DP  RH WIND       PRES   REMARKS
MACKINAC ISLAN FOG       32  32 100 SE3       29.70S VSB 1
NEWBERRY       FOG       32  31  98 CALM      29.68S VSB 3/4
S. S. MARIE    CLOUDY    33  32  96 E5        29.71F FOG     WCI  29
$$
MIZ004>006-011>014-085-210900-
CENTRAL UPPER MICHIGAN

CITY           SKY/WX    TMP DP  RH WIND       PRES   REMARKS
MANISTIQUE     FOG       32  32 100 CALM      29.68S VSB 3/4
ESCANABA       FOG       33  32  96 CALM      29.67F VSB 1/4
SAWYER-GWINN   FOG       32  32  99 S6        29.65S VSB 1/2 WCI  26
$$
MIZ001>003-009>011-084-210900-
WESTERN UPPER MICHIGAN

CITY           SKY/WX    TMP DP  RH WIND       PRES   REMARKS
IRON MOUNTAIN  FOG       32  30  92 CALM      29.63S VSB 1
HOUGHTON       FOG       34  32  92 E3        29.62F VSB 1/4
COPPER HARBOR    N/A     35  34  96 SW6       29.65R WCI  30
IRONWOOD       CLOUDY    35  33  92 SE5       29.59S WCI  31
$$

ABBREVIATIONS USED IN REMARKS
   TC - TEMPERATURE IN CELSIUS
  WCI - WIND CHILL INDEX
   HX - HEAT INDEX
  VSB - VISIBILITY





USA.gov is the U.S. government's official web portal to all federal, state and local government web resources and services.